Location: Kunchanapalle
(16.4623°N, 80.6176°E)
Time: 12:41:13
(UTC+00:00)

H-2A R/B - Pass Details

Date: 13 August 2020
Orbit: 578 x 654 km, 98.5° (Epoch: 24 September)

Event Time Altitude Azimuth Distance (km) Brightness Sun altitude
Exits shadow 23:08:34 30° 282° (WNW) 1,044 2.8 -17.4°
Drops below altitude 10° 23:11:30 10° 324° (NW) 1,890 4.4 -16.8°
Sets 23:13:48 0° 334° (NNW) 2,787 5.4 -16.3°
